Wind_Speed
5 6 5 5 4 4 5 6 7 7 8 8 8 9 10 10 10 10 11 12 12 13 13 14 14 15 16 16 17 18 18 19 19 20 21 22 23 24 25 25 26 26 26
6 7 5 4 3 3 5 5 6 6 7 8 8 9 9 10 10 10 11 12 13 13 13 14 14 15 15 16 17 18 18 18 19 19 21 22 24 24 25 26 27 28 28
4 4 3 2 2 3 4 5 6 6 7 7 8 9 9 9 10 10 11 12 12 12 13 14 15 15 16 17 17 18 19 20 20 20 21 22 23 25 26 26 27 28 29
3 3 1 2 2 3 3 4 5 6 6 6 7 8 9 9 10 10 11 12 12 13 14 16 16 17 18 19 19 20 21 22 23 23 24 24 24 25 26 27 28 28 30
3 2 2 1 2 2 3 4 4 4 5 6 7 8 9 10 11 11 12 12 14 15 17 18 19 20 21 22 22 23 23 24 25 26 27 27 27 28 28 29 30 30 30
3 3 2 1 0 1 2 2 3 4 5 7 8 8 9 10 11 12 13 15 16 17 19 20 21 22 23 24 24 25 26 27 27 28 29 30 31 31 30 31 32 32 33
3 2 2 2 1 1 2 3 3 5 6 7 8 9 10 11 13 14 15 17 18 19 21 22 22 23 24 25 26 27 28 29 29 30 31 32 33 34 34 34 34 34 35
3 2 2 1 0 1 2 3 4 5 6 7 9 10 11 12 14 15 17 18 20 21 22 23 24 25 26 26 27 28 29 30 31 31 32 33 34 35 36 36 36 37 37
4 3 2 2 1 1 2 3 5 5 6 8 9 10 12 13 15 17 18 20 22 23 25 26 27 27 28 29 29 30 31 31 31 32 32 33 35 36 37 38 38 39 39
4 3 2 1 0 1 3 4 4 5 7 8 10 11 13 14 16 18 20 22 23 25 27 28 29 30 30 31 31 32 32 32 32 32 33 33 34 35 36 37 38 39 39
3 3 2 1 1 2 3 5 6 7 9 10 11 13 14 16 18 19 22 24 26 27 29 30 31 32 33 33 33 33 33 33 33 33 33 33 33 33 34 35 36 37 38
3 2 2 3 3 4 5 6 8 9 11 12 14 15 16 18 20 22 24 26 27 29 30 32 33 33 34 35 35 35 35 34 34 34 33 33 32 32 33 33 34 35 36
3 4 4 5 5 6 7 9 10 11 13 14 16 17 19 20 22 24 26 27 29 30 32 33 34 35 35 36 36 35 35 34 34 33 33 33 32 32 33 33 33 33 34
5 6 6 7 8 9 10 11 12 13 14 16 17 19 20 22 24 25 27 29 31 32 33 35 36 36 36 36 36 35 35 34 34 34 34 33 33 33 33 33 33 33 34
8 9 9 10 11 12 13 14 14 15 16 18 19 21 22 23 25 27 29 31 32 34 35 36 36 37 37 37 36 35 35 35 35 35 35 34 33 33 32 33 33 34 34
11 11 12 12 13 14 15 16 17 18 19 20 21 23 24 25 26 29 31 32 33 35 36 37 37 38 38 37 36 36 35 35 35 35 35 34 33 32 32 32 33 33 33
12 13 14 15 16 17 18 18 19 20 21 22 23 24 26 27 29 31 32 34 35 36 37 37 38 39 39 38 38 37 36 35 35 35 34 34 33 32 32 31 32 33 33
14 15 16 17 18 19 20 20 21 22 23 24 25 26 27 28 30 32 34 36 36 36 37 38 39 39 39 39 38 37 36 36 35 35 34 33 33 32 32 32 32 32 33
17 18 18 19 20 21 22 22 23 24 25 26 27 28 29 30 32 34 35 36 37 38 39 40 40 40 40 39 38 38 37 36 36 35 34 33 32 32 31 31 31 31 33
20 20 21 22 22 23 24 25 25 26 27 28 29 30 31 32 34 35 36 37 39 40 41 41 41 41 41 40 40 39 38 37 36 35 34 33 32 32 31 30 30 31 32
22 22 23 23 24 25 26 26 27 28 29 30 31 32 33 35 36 37 38 39 40 41 41 41 42 42 41 41 40 39 38 37 36 35 34 33 32 31 31 30 30 30 30
23 24 24 25 26 26 27 28 29 31 31 32 33 34 36 37 38 39 39 41 41 41 42 42 42 42 42 41 40 39 38 37 35 34 33 32 31 31 30 30 30 30 29
24 25 26 28 28 28 30 30 31 32 33 34 35 37 38 38 39 40 41 42 43 43 42 43 43 43 43 42 41 39 38 37 35 34 32 31 31 30 30 30 30 29 28
26 27 27 29 30 31 31 32 34 35 35 36 37 39 40 41 42 43 43 43 44 44 44 44 44 44 43 42 41 39 38 37 35 33 32 32 31 30 30 30 29 28 28
28 28 29 31 32 32 34 35 36 36 37 38 39 40 42 43 43 43 44 44 45 45 45 45 45 45 44 43 41 39 38 36 35 33 32 31 31 30 30 29 28 27 27
30 31 32 32 33 34 35 37 38 39 40 40 40 42 43 44 45 45 46 46 46 46 47 47 46 45 44 42 41 39 38 36 34 33 32 30 30 30 29 27 27 26 25
Wind_Direction
165 159 176 195 226 257 279 292 296 300 301 306 313 318 320 318 314 309 307 307 306 305 302 299 297 294 292 291 289 286 284 280 276 273 270 268 266 264 263 261 258 255 253
158 161 179 203 234 275 290 294 296 302 310 315 319 322 320 318 317 316 315 313 311 311 309 308 305 302 298 294 292 291 289 286 282 277 273 270 268 266 264 261 259 257 254
128 138 171 231 260 283 294 298 301 304 314 319 323 324 323 323 322 322 321 319 319 318 315 313 311 309 305 301 297 295 292 289 286 282 278 274 271 269 266 263 260 257 254
100 123 179 243 266 278 293 306 313 315 320 327 329 331 334 335 333 331 328 326 325 323 320 316 313 311 309 306 302 299 294 291 288 284 281 277 274 272 269 266 262 258 255
92 127 158 191 251 280 308 322 320 321 328 336 339 341 342 341 339 337 335 333 330 326 322 319 316 313 310 307 303 299 296 292 289 286 283 279 276 273 270 269 265 261 258
88 116 124 140 220 303 334 343 344 345 346 346 346 345 343 341 341 342 340 338 334 329 326 323 319 315 311 307 304 301 298 294 290 287 284 280 277 274 271 268 266 263 259
82 109 116 101 58 4 345 353 356 353 348 346 344 343 342 342 344 344 342 339 336 333 329 325 322 318 314 311 307 304 301 297 293 289 286 282 278 275 272 269 266 264 261
91 110 103 103 87 334 343 351 347 343 343 342 340 340 341 343 343 342 341 339 337 334 330 327 324 321 319 316 312 308 305 301 297 293 289 285 281 277 273 270 266 263 261
90 102 100 107 111 353 341 335 330 330 333 336 337 338 340 340 339 337 337 336 334 333 331 329 327 324 321 318 315 312 309 305 301 297 293 288 284 280 275 271 267 263 260
87 98 95 71 357 319 316 316 317 322 327 329 331 333 334 333 333 332 332 331 330 330 330 328 326 325 323 320 317 314 311 307 303 299 295 291 287 283 279 274 270 266 261
58 64 45 339 308 311 315 320 321 320 321 322 323 324 324 325 327 328 329 329 328 328 327 326 325 324 323 320 318 315 312 308 305 301 297 293 289 285 281 278 274 269 264
19 12 353 332 323 321 321 321 319 318 319 318 318 317 318 320 323 325 326 326 327 327 327 326 326 324 323 320 318 316 312 309 306 303 300 295 291 286 283 280 276 272 267
340 332 331 327 323 317 314 313 313 313 312 312 313 313 314 316 318 320 322 323 324 325 326 326 326 324 323 321 319 317 314 311 308 305 301 298 293 289 285 281 277 273 269
324 319 318 316 312 309 305 303 304 304 305 306 309 311 312 313 314 317 319 320 322 324 325 325 325 325 324 322 320 318 314 312 310 306 303 300 295 291 286 282 278 275 271
317 313 310 307 303 299 296 295 296 298 301 304 306 308 310 311 313 316 318 319 320 321 323 324 324 324 324 323 320 318 315 312 310 307 305 302 298 293 288 284 279 276 273
310 306 301 297 293 291 291 291 292 294 297 301 304 307 308 310 313 315 317 318 318 320 322 323 323 323 323 322 320 318 314 312 310 308 306 304 300 295 291 285 281 278 275
300 295 289 286 286 285 286 288 290 292 295 299 303 305 306 308 311 314 315 316 318 319 320 321 322 322 322 321 319 318 315 313 311 309 307 305 301 297 293 288 284 279 276
288 287 284 282 283 283 284 285 288 291 294 298 300 303 305 307 310 312 314 316 317 319 320 321 322 322 320 319 318 318 316 314 312 310 308 305 301 298 294 290 286 282 278
287 285 284 284 283 284 285 286 288 291 294 296 298 301 304 306 308 311 314 315 317 318 319 320 321 321 320 320 318 317 316 314 312 311 309 306 302 299 296 292 288 285 281
287 286 285 286 284 284 285 286 288 291 294 295 297 299 303 305 308 310 312 314 316 318 318 319 319 320 320 319 318 317 316 314 312 310 308 305 303 300 297 294 290 286 283
285 288 288 286 286 286 287 288 290 292 294 296 297 300 302 305 307 309 311 313 315 316 317 318 319 319 319 318 317 316 315 313 311 309 307 305 303 301 298 296 292 288 284
285 288 288 286 288 288 288 290 291 292 294 297 299 300 302 305 306 308 310 311 312 314 315 316 317 318 317 316 315 315 314 312 311 309 307 305 303 302 300 298 295 292 286
285 285 286 287 287 289 290 291 292 293 295 297 298 300 302 304 305 307 308 309 310 312 313 314 315 315 315 314 314 313 312 312 310 309 307 305 304 303 301 300 297 294 289
286 285 287 288 288 289 290 290 291 292 295 296 298 300 302 303 304 305 307 308 309 310 311 312 313 313 313 313 313 312 311 310 309 308 307 305 304 303 302 300 297 294 290
288 286 287 288 288 289 289 290 292 294 295 296 297 299 300 302 303 304 306 307 307 308 309 310 311 311 311 311 311 310 309 309 308 307 306 305 304 304 303 301 298 295 291
287 288 288 288 287 289 290 292 293 294 296 296 297 298 299 300 301 301 303 305 305 306 307 308 309 309 309 309 308 308 307 306 306 306 305 305 305 305 304 302 299 296 292
Height
5859 5861 5865 5867 5869 5871 5872 5873 5872 5872 5872 5871 5871 5869 5868 5867 5865 5864 5862 5860 5859 5858 5856 5855 5854 5853 5852 5851 5850 5849 5848 5846 5846 5845 5845 5844 5844 5844 5844 5845 5845 5846 5847
5859 5860 5863 5866 5868 5869 5870 5870 5870 5870 5870 5869 5868 5867 5866 5864 5863 5861 5859 5858 5856 5854 5853 5851 5850 5849 5848 5846 5845 5844 5842 5841 5841 5840 5840 5839 5839 5838 5838 5838 5839 5839 5840
5857 5859 5862 5864 5866 5867 5868 5868 5868 5868 5868 5867 5865 5865 5863 5862 5860 5858 5857 5855 5853 5851 5850 5848 5846 5845 5843 5842 5840 5839 5837 5836 5835 5834 5834 5833 5832 5832 5832 5831 5832 5832 5833
5858 5860 5862 5863 5865 5866 5866 5866 5866 5866 5865 5864 5863 5862 5861 5859 5858 5856 5854 5852 5850 5848 5846 5845 5842 5841 5839 5837 5835 5833 5832 5830 5829 5828 5827 5827 5826 5825 5824 5824 5824 5825 5825
5858 5860 5861 5863 5864 5864 5864 5864 5864 5864 5863 5862 5861 5860 5858 5857 5855 5854 5852 5850 5848 5845 5843 5840 5838 5836 5834 5831 5829 5827 5826 5824 5822 5820 5819 5819 5818 5817 5817 5816 5816 5817 5817
5858 5859 5861 5862 5862 5862 5862 5862 5862 5861 5861 5859 5858 5857 5856 5855 5853 5851 5849 5847 5844 5841 5839 5836 5833 5831 5828 5826 5823 5821 5818 5816 5814 5813 5811 5810 5809 5808 5808 5808 5807 5807 5808
5858 5859 5860 5860 5861 5861 5861 5861 5860 5859 5858 5857 5856 5855 5854 5852 5850 5848 5845 5843 5841 5838 5835 5832 5829 5825 5822 5819 5816 5813 5811 5808 5806 5804 5802 5800 5799 5798 5798 5798 5798 5798 5798
5858 5859 5859 5859 5860 5859 5859 5859 5858 5858 5857 5856 5854 5853 5852 5850 5847 5845 5842 5840 5837 5834 5830 5827 5823 5820 5816 5813 5809 5806 5803 5800 5797 5794 5792 5790 5788 5787 5786 5787 5787 5787 5788
5858 5858 5858 5858 5858 5858 5858 5857 5857 5856 5855 5854 5852 5851 5849 5847 5844 5842 5839 5836 5832 5829 5826 5822 5818 5814 5810 5806 5802 5798 5795 5791 5788 5785 5782 5780 5777 5776 5775 5774 5775 5776 5776
5857 5857 5857 5857 5857 5857 5856 5856 5855 5854 5853 5852 5850 5848 5846 5844 5841 5838 5835 5832 5828 5824 5820 5816 5812 5808 5803 5799 5795 5790 5786 5782 5779 5775 5772 5769 5767 5765 5763 5762 5762 5762 5764
5856 5856 5856 5856 5856 5855 5855 5854 5853 5852 5850 5849 5847 5845 5843 5840 5838 5834 5831 5827 5823 5819 5815 5811 5806 5801 5797 5792 5787 5783 5778 5774 5770 5766 5762 5759 5756 5754 5753 5751 5750 5750 5751
5854 5854 5854 5854 5853 5852 5852 5851 5850 5848 5847 5845 5843 5841 5839 5836 5833 5830 5826 5822 5818 5814 5809 5805 5800 5795 5789 5784 5779 5774 5769 5765 5761 5756 5753 5749 5747 5744 5742 5740 5739 5738 5738
5851 5851 5851 5850 5850 5849 5848 5847 5846 5845 5843 5842 5840 5838 5835 5832 5829 5825 5821 5817 5813 5808 5803 5798 5793 5788 5782 5777 5771 5766 5761 5756 5752 5747 5743 5740 5737 5734 5732 5730 5728 5727 5727
5848 5847 5847 5846 5846 5845 5845 5844 5843 5841 5840 5838 5836 5833 5830 5827 5824 5820 5816 5811 5807 5802 5797 5792 5786 5781 5775 5769 5763 5758 5753 5747 5743 5738 5734 5730 5727 5724 5721 5719 5718 5716 5716
5844 5843 5843 5843 5842 5841 5841 5840 5839 5837 5835 5833 5831 5828 5825 5822 5818 5814 5810 5805 5800 5795 5790 5785 5779 5773 5767 5761 5756 5750 5744 5739 5734 5729 5725 5720 5717 5713 5711 5709 5707 5705 5705
5840 5839 5839 5839 5838 5837 5836 5835 5834 5832 5830 5828 5825 5822 5819 5816 5812 5808 5803 5799 5794 5789 5783 5778 5772 5766 5760 5754 5748 5742 5736 5731 5726 5720 5716 5711 5707 5703 5700 5698 5696 5695 5693
5836 5836 5835 5834 5833 5832 5831 5830 5828 5826 5824 5822 5819 5816 5812 5809 5805 5801 5796 5791 5786 5781 5776 5770 5764 5758 5751 5745 5739 5733 5728 5722 5717 5711 5706 5702 5698 5694 5691 5688 5685 5684 5682
5832 5831 5830 5829 5828 5827 5825 5824 5822 5820 5818 5815 5812 5809 5805 5802 5798 5793 5789 5784 5778 5773 5767 5762 5756 5749 5743 5737 5731 5725 5719 5713 5707 5702 5697 5693 5688 5684 5681 5678 5675 5673 5671
5827 5826 5825 5823 5822 5820 5819 5817 5815 5813 5810 5808 5805 5801 5798 5794 5790 5785 5780 5775 5770 5765 5759 5753 5747 5741 5734 5728 5722 5716 5710 5704 5698 5693 5688 5683 5679 5675 5671 5668 5666 5663 5660
5820 5819 5818 5816 5815 5813 5812 5810 5807 5805 5803 5800 5797 5793 5789 5785 5781 5776 5771 5766 5761 5756 5750 5744 5738 5732 5725 5719 5713 5707 5701 5695 5690 5684 5679 5674 5670 5666 5662 5659 5656 5653 5650
5813 5812 5811 5809 5808 5806 5804 5802 5800 5797 5794 5791 5788 5785 5780 5776 5772 5767 5762 5757 5752 5746 5741 5735 5729 5722 5716 5710 5703 5698 5692 5686 5681 5675 5670 5665 5661 5657 5653 5649 5646 5643 5640
5805 5804 5803 5802 5800 5798 5796 5794 5792 5789 5786 5783 5779 5775 5771 5766 5762 5758 5753 5748 5742 5737 5731 5725 5719 5713 5707 5700 5694 5689 5683 5677 5672 5667 5662 5657 5652 5648 5644 5640 5636 5633 5630
5797 5796 5795 5794 5792 5790 5787 5785 5783 5780 5777 5773 5770 5766 5761 5757 5752 5748 5743 5738 5732 5727 5721 5715 5709 5703 5697 5691 5685 5679 5674 5668 5663 5658 5653 5648 5644 5640 5635 5631 5627 5623 5620
5789 5788 5786 5785 5783 5781 5778 5776 5773 5770 5767 5764 5760 5755 5751 5747 5742 5737 5733 5727 5722 5716 5711 5705 5699 5693 5687 5681 5675 5670 5664 5659 5654 5649 5644 5640 5635 5631 5626 5622 5618 5614 5611
5781 5779 5777 5776 5774 5771 5769 5766 5763 5759 5756 5753 5749 5745 5740 5736 5731 5726 5721 5716 5711 5705 5700 5694 5688 5682 5677 5671 5665 5660 5655 5650 5645 5640 5635 5631 5626 5622 5618 5613 5609 5605 5602
5771 5769 5767 5765 5763 5761 5758 5755 5752 5748 5745 5741 5737 5733 5729 5724 5720 5715 5710 5704 5699 5694 5688 5682 5677 5671 5666 5660 5655 5650 5645 5640 5636 5631 5627 5622 5618 5614 5609 5605 5601 5597 5593